Regional Weather Roundup
Issued by NWS

Home | Current Version | Previous Version | Graphics & Text | Print | Product List | Glossary On
Versions: 1 2 3 4 5 6 7 8 9 10 11 12 13 14 15 16 17 18 19 20 21 22 23 24 25 26 27 28 29 30 31 32 33 34 35 36 37 38 39 40 41 42 43 44 45 46 47 48 49 50
000
ASUS43 KFSD 060510
RWRSD

WEATHER ROUNDUP FOR SOUTH DAKOTA
NATIONAL WEATHER SERVICE SIOUX FALLS SD
1200 AM CDT WED MAY 06 2015

NOTE: "FAIR" INDICATES FEW OR NO CLOUDS BELOW 12,000 FEET WITH NO
SIGNIFICANT WEATHER AND/OR OBSTRUCTIONS TO VISIBILITY.


SDZ001>005-009-010-012>017-060600-
NORTHWEST AND NORTH CENTRAL SOUTH DAKOTA

CITY           SKY/WX    TMP DP  RH WIND       PRES   REMARKS
BUFFALO          N/A     58  50  75 SE18      29.72S
FAITH            N/A     58  54  86 SE17      29.83F
MOBRIDGE       CLOUDY    60  55  83 SE12      29.86F
$$

SDZ012>016-024>037-041>051-057-063-072>074-060600-
SOUTHWEST AND SOUTH CENTRAL SOUTH DAKOTA

CITY           SKY/WX    TMP DP  RH WIND       PRES   REMARKS
RAPID CTY ARPT CLOUDY    57  52  83 SE10      29.82F
PIERRE         CLOUDY    57  56  96 E8        29.86F FOG
CUSTER         CLOUDY    48  45  89 S8G18     29.87F
ELLSWORTH AFB  CLOUDY    58  53  83 S14       29.81F
PHILIP         CLOUDY    58  56  93 E6        29.83F
PINE RIDGE     CLOUDY    55  50  83 E7        29.82F
SPEARFISH      FAIR      57  46  67 SE9       29.80F
WINNER         CLOUDY    59  56  89 SE7       29.88F FOG
$$

SDZ004>011-016>023-039-040-060600-
NORTHEAST SOUTH DAKOTA

CITY           SKY/WX    TMP DP  RH WIND       PRES   REMARKS
ABERDEEN       CLOUDY    60  56  86 SE7       29.93F
WATERTOWN      CLOUDY    59  56  89 SE10      29.99F
BROOKINGS      CLOUDY    59  57  94 SE17G23   30.00F
SISSETON         N/A     59  55  87 S15       29.99S
$$

SDZ017-020-022-023-036>040-048>070-060600-
SOUTHEAST SOUTH DAKOTA

CITY           SKY/WX    TMP DP  RH WIND       PRES   REMARKS
SIOUX FALLS    CLOUDY    62  59  90 SE16      29.99S
HURON          PTCLDY    61  57  87 SE12      29.92F
CHAMBERLAIN    CLOUDY    58  57  94 SE10      29.88F
MITCHELL       MOCLDY    63  59  87 SE12      29.93F
YANKTON        MOCLDY    64  55  72 E7        29.93F
$$

ABBREVIATIONS USED IN REMARKS
   TC - TEMPERATURE IN CELSIUS
  WCI - WIND CHILL INDEX
   HX - HEAT INDEX
  VSB - VISIBILITY



USA.gov is the U.S. government's official web portal to all federal, state and local government web resources and services.